Weather in Minot

United States     48°13′57″N   101°17′44″W
temp.,
°C
wind,
m/s
gust,
m/s
humid.,
%
clouds,
%
prec.,
mm/h
press.,
hPa
HPBL,
m
25 may, wed
wed2501:00+11s41071100 0.0 1017231
04:00+9s4876100 0.0 1017146
07:00+9s3877100 0.0 1016174
10:00+16s685355 0.0 1015666
13:00+19s55400 0.0 10132153
16:00+19sse354176 0.0 10121885
19:00+18sse474786 0.0 1009871
22:00+15sse6126256 0.0 1009354
26 may, thu
thu2601:00+13s4116497 0.0 1009278
04:00+13sse4116278 0.0 1008418
07:00+11s37755 0.0 1008179
10:00+18wnw23535 0.0 1008564
13:00+23wnw35365 0.0 10072377
16:00+24nw463252 0.0 10072638
19:00+24nw363415 0.0 10072584
22:00+17nnw22515 0.0 100911
27 may, fri
fri2701:00+15wsw01585 0.0 100911
04:00+14wnw006164 0.0 101011
07:00+14s2263100 0.0 101014
10:00+20s3549100 0.0 1009439
13:00+25sse573413 0.0 10062004
16:00+26sse7934100 0.0 10042068
19:00+19ne2266100 0.5 100223
22:00+16sse61288100 1.4 1003411
28 may, sat
sat2801:00+15sse61383100 1.5 1001410
04:00+13ssw3994100 0.0 1000213
07:00+14wsw2893100 0.0 999181
10:00+21wsw3457100 0.0 998669
13:00+25wnw4636100 0.0 9961893
16:00+19w6759100 0.1 998369
19:00+17sw6873100 0.1 997364
22:00+15sw3684100 0.0 997113
29 may, sun
sun2901:00+14s1279100 0.0 99619
04:00+14sse1181100 0.0 99614
07:00+14sse2386100 0.0 99783
10:00+16e1283100 0.0 997215
13:00+19e5670100 0.3 996999
16:00+15ene4791100 5.1 996383
19:00+14ne3698100 15.6 997318
22:00+14nne51196100 7.8 999571